STARLINK-36908

Last updated on Fri Mar 27 2026 00:02:06 GMT+0000 (Coordinated Universal Time)

1 67945U 26037P 26085.50002314 .00116529 00000+0 19679-2 0 9992 2 67945 43.0003 96.9129 0001320 278.7509 262.0610 15.50503733 5906
UTC large
Height (km)
Speed (km/s)
/
Latitude / Longitude
Inclination (degrees)
Orbital Period (minutes)
Azimuth
Elevation
Range (km)
Doppler Factor

Next 0 passes for location: London (51.5072 / 0.1276)

Sorry there are no passes over London.